sat.trackr.live / text

‹ back to catalog

STARLINK-11618 [DTC]

NORAD 63185 · 2025-048C

PAYLOAD ACTIVE UNKNOWN

§ Identity

Operator
Country
US
Launch date
2025-03-13
Launch site
AFETR
Launch vehicle
Mass (kg)
RCS (m²)

Purposes: comms

External: N2YO · Heavens-Above · Gunter

§ Orbital elements

Epoch: 2026-05-24T22:14:29.872896Z

Period
91.67 min
Inclination
43.0005°
Eccentricity
0.0001306
Mean motion
15.70898161 rev/d
Perigee alt
355.4 km
Apogee alt
357.2 km
Semi-major
6,734.5 km
B*
1.9735e-3
RAAN
220.1531°
Arg perigee
50.5856°
Mean anomaly
309.5127°
Rev number
7,050

§ Raw data

STARLINK-11618 [DTC]1 63185U 25048C   26144.92673464  .00261543  00000+0  19735-2 0  99972 63185  43.0005 220.1531 0001306  50.5856 309.5127 15.70898161 70505

JSON: /api/v1/satellites/63185 · /tle

For live sub-satellite position, see the globe view (requires WebGL).

§ Visibility from observer

Set your observer location to see the next 7 days of passes ≥ 10°. The values pass through the URL so the page stays shareable.

No JS? Fill the form by hand. The geolocation button needs JavaScript.